AO-07 1 07530U 74089B 18284.53673160 -.00000047 00000-0 -14973-4 0 9998 2 07530 101.7030 250.1742 0012397 109.1119 000.5909 12.53634800008939 UO-11 1 14781U 84021B 18284.65825304 .00000087 00000-0 16896-4 0 9991 2 14781 97.6390 315.8402 0009855 65.5877 294.6365 14.83035615861708 LO-19 1 20442U 90005G 18284.40696648 .00000015 00000-0 21837-4 0 9993 2 20442 98.6179 222.2231 0011992 162.1729 197.9878 14.32906695500535 HUBBLE 1 20580U 90037B 18284.57826567 .00000537 00000-0 21893-4 0 9995 2 20580 028.4698 065.6553 0002626 316.2764 123.5425 15.09108863362980 MET-2/21 1 22782U 93055A 18284.58335637 -.00000000 00000-0 -13595-4 0 9995 2 22782 082.5519 001.5578 0022845 157.4325 312.8046 13.83814531268004 AO-27 1 22825U 93061C 18284.15746016 -.00000013 00000-0 13029-4 0 9995 2 22825 098.8764 262.4493 0008707 015.9780 344.1674 14.30041323305878 IO-26 1 22826U 93061D 18284.56711696 .00000003 00000-0 18799-4 0 9994 2 22826 098.8705 262.8901 0009002 004.0400 356.0852 14.30373450306149 FO-29 1 24278U 96046B 18284.47061517 -.00000010 00000-0 24520-4 0 9991 2 24278 098.5149 107.1996 0350543 169.0319 191.8723 13.53086215093718 NOAA-15 1 25338U 98030A 18284.60729001 .00000019 00000-0 26610-4 0 9998 2 25338 098.7658 301.0964 0009498 247.0113 113.0065 14.25878587061353 GO-32 1 25397U 98043D 18284.41820259 -.00000006 00000-0 16415-4 0 9992 2 25397 98.6583 222.9759 0002241 63.6456 296.4952 14.23652706 52260 ISS 1 25544U 98067A 18284.87806095 .00002267 00000-0 41930-4 0 9994 2 25544 51.6419 157.2076 0003481 272.6648 177.3748 15.53808896136669 NO-44 1 26931U 01043C 18284.41512064 -.00000037 00000-0 17573-4 0 9993 2 26931 067.0500 289.5012 0007237 259.5310 100.4976 14.30519399889109 SO-50 1 27607U 02058C 18284.79110984 -.00000014 00000-0 18948-4 0 9999 2 27607 64.5539 93.5936 0075754 304.2519 55.1423 14.75486562850161 CO-55 1 27844U 03031E 18284.61010881 .00000047 00000-0 40912-4 0 9991 2 27844 098.6878 291.5530 0010512 039.9240 320.2708 14.22137427792704 CO-57 1 27848U 03031J 18284.60195638 .00000032 00000-0 34603-4 0 9992 2 27848 098.6962 291.9803 0010548 049.9861 310.2241 14.21738568792576 RS-22 1 27939U 03042A 18284.82202912 .00000119 00000-0 29823-4 0 9997 2 27939 98.0062 61.0600 0013918 135.6917 224.5416 14.66721716803910 NOAA-18 1 28654U 05018A 18284.56970536 -.00000025 00000-0 11307-4 0 9997 2 28654 99.1339 322.3264 0014805 157.5719 202.6102 14.12386959690215 CO-58 1 28895U 05043F 18284.36357508 .00000150 00000-0 37514-4 0 9994 2 28895 97.9256 71.2258 0018015 64.7403 295.5664 14.63589029690870 Falconsat-3 1 30776U 07006E 18284.31955651 .00003875 00000-0 11265-3 0 9995 2 30776 35.4356 247.1824 0002791 342.0076 18.0551 15.35035879642176 CO-65 1 32785U 08021C 18284.50534042 .00000266 00000-0 34436-4 0 9990 2 32785 097.5475 291.1324 0013549 019.3165 340.8563 14.88186561566401 AAUSAT2 1 32788U 08021F 18284.52724109 .00000564 00000-0 57302-4 0 9998 2 32788 097.5151 306.1510 0010831 324.8729 035.1777 14.94472639567458 DO-64 1 32789U 08021G 18284.36998534 .00001935 00000-0 13547-3 0 9991 2 32789 97.4999 336.1786 0010972 259.3313 100.6679 15.06358435569275 CO-66 1 32791U 08021J 18284.60469125 .00000351 00000-0 41177-4 0 9992 2 32791 97.5338 296.8330 0013248 357.8080 2.3079 14.90644611566856 RS-30 1 32953U 08025A 18284.74147158 .00000020 00000-0 75656-4 0 9992 2 32953 82.5010 300.1969 0018359 318.1373 41.8298 12.43085953471251 PRISM 1 33493U 09002B 18284.72747551 .00000128 00000-0 16924-4 0 9991 2 33493 98.1209 191.2357 0014304 294.8881 65.0868 14.96358873527778 NOAA-19 1 33591U 09005A 18284.53952404 .00000029 00000-0 40851-4 0 9993 2 33591 99.1552 264.9469 0014106 4.5670 355.5627 14.12312066498604 TISAT-1 1 36799U 10035E 18284.36223924 .00000449 00000-0 51561-4 0 9996 2 36799 098.1232 063.7795 0012333 181.2838 178.8349 14.90900813447269 JUGNU 1 37839U 11058B 18284.77025966 .00000309 00000-0 23152-4 0 9999 2 37839 19.9621 50.3029 0018996 91.6679 56.5864 14.12630882361874 SRMSAT 1 37841U 11058D 18284.65601654 .00000314 00000-0 27373-4 0 9998 2 37841 19.9717 102.6021 0011849 330.2450 91.1186 14.10616325361343 AO-71 1 37854U 11061E 18284.57570802 .00001910 00000-0 10580-3 0 9991 2 37854 101.7057 049.1577 0162562 088.2562 273.7261 15.05799226378895 HRBE 1 37855U 11061F 18284.31535479 .00002125 00000-0 11468-3 0 9990 2 37855 101.7179 046.2605 0175555 098.5000 263.6150 15.04788076378646 ALMASAT-1 1 38078U 12006B 18284.37985209 .00041488 43257-5 31309-3 0 9991 2 38078 69.4306 253.7115 0220461 288.9183 226.3891 15.46957735358586 HORYU-2 1 38340U 12025D 18284.57242982 .00000208 00000-0 38513-4 0 9994 2 38340 098.3594 310.2487 0011258 194.5706 165.5179 14.75610320333868 RS-40 1 38735U 12041C 18284.62235785 .00000004 00000-0 -41750-4 0 9991 2 38735 82.4803 24.0123 0017533 63.1287 297.1582 12.42577648281495 BEESAT-3 1 39135U 13015F 18284.52726533 .00001239 00000-0 72369-4 0 9993 2 39135 064.8666 125.3712 0011018 235.8384 124.1698 15.16918330301905 BEESAT-2 1 39136U 13015G 18284.80216760 .00001194 00000-0 71138-4 0 9994 2 39136 64.8678 127.5887 0011561 236.3768 123.6255 15.16376682302273 ZACUBE-1 1 39417U 13066B 18284.59420484 .00000248 00000-0 37529-4 0 9993 2 39417 097.5799 306.9731 0060220 132.8931 227.7360 14.80990742264023 TRITON-1 1 39427U 13066M 18284.53899828 .00000181 00000-0 37140-4 0 9995 2 39427 097.6510 272.8168 0112575 246.3841 112.5513 14.67725847261455 GOMX-1 1 39430U 13066Q 18284.74578949 .00000264 00000-0 57130-4 0 9993 2 39430 97.7098 253.3016 0150891 323.1653 35.9253 14.59138442260150 LO-74 1 39440U 13066AA 18284.56305274 .00000223 00000-0 37960-4 0 9997 2 39440 097.6007 292.8814 0080501 176.5094 183.6696 14.75731135261882 AO-73 1 39444U 13066AE 18284.59575066 .00000321 00000-0 45836-4 0 9992 2 39444 097.5803 308.6451 0059422 127.9096 232.7511 14.81786094262303 SPROUT 1 39770U 14029E 18284.81030298 .00000911 00000-0 10784-3 0 9990 2 39770 97.8811 24.9229 0008872 179.3618 180.7635 14.87004665237698 DUCHIFAT-1 1 40021U 14033M 18284.61205074 .00000488 00000-0 55887-4 0 9993 2 40021 097.9134 203.5278 0013480 149.0026 211.1990 14.90408188234293 NANOSATCBR1 1 40024U 14033Q 18284.30821215 .00000466 00000-0 54664-4 0 9991 2 40024 097.9058 201.2287 0012713 152.1186 208.0715 14.89657102233644 EO-79 1 40025U 14033R 18284.55781510 .00000328 00000-0 40981-4 0 9996 2 40025 097.9007 199.6905 0012895 156.1414 204.0403 14.88788470233591 DTUSAT-2 1 40030U 14033W 18284.75534242 .00000314 00000-0 39839-4 0 9997 2 40030 97.8946 198.4281 0012451 150.6628 209.5290 14.88391118234073 EO-80 1 40032U 14033Y 18284.75088884 .00000320 00000-0 40593-4 0 9991 2 40032 97.8953 198.4256 0012423 151.2857 208.9046 14.88330088234065 ANTELSAT 1 40034U 14033AA 18284.62865995 .00000234 00000-0 42226-4 0 9994 2 40034 097.7925 156.9017 0058608 181.5620 178.5415 14.73980513231302 VELOX-1 1 40057U 14034E 18284.72674747 .00000303 00000-0 50170-4 0 9998 2 40057 98.2129 37.8534 0010049 320.1485 39.8993 14.77503417230854 DAURIA DX 1 1 40071U 14037C 18284.88297421 .00000124 00000-0 23408-4 0 9999 2 40071 98.3923 61.5652 0007432 313.2859 46.7740 14.81196513230271 UKUBE-1 1 40074U 14037F 18284.67635606 .00000313 00000-0 44857-4 0 9991 2 40074 98.4041 67.9398 0003826 311.5906 48.4973 14.83876408230570 HODOYOSHI-1 1 40299U 14070B 18284.87730683 .00000909 00000-0 41515-4 0 9999 2 40299 97.3716 4.5582 0012639 193.2466 230.3270 15.23054100218240 CHUBUSAT-1 1 40300U 14070C 18284.82322132 .00000966 00000-0 45504-4 0 9998 2 40300 97.3567 359.9857 0019222 210.1420 289.1413 15.21738637218011 QSAT-EOS 1 40301U 14070D 18284.79811561 .00002501 00000-0 10185-3 0 9997 2 40301 97.3524 1.7496 0025778 197.7397 280.1757 15.25121814218190 FIREBIRD FU3 1 40377U 15003B 18284.43882625 .00002259 00000-0 94729-4 0 9994 2 40377 099.0815 209.2214 0129421 203.4258 156.1042 15.17696890203947 FIREBIRD FU4 1 40378U 15003C 18284.75667860 .00002239 00000-0 93831-4 0 9993 2 40378 99.0818 209.6659 0129647 202.2430 157.3144 15.17705460204005 GRIFEX 1 40379U 15003D 18284.75435430 .00001554 00000-0 71328-4 0 9996 2 40379 99.0824 205.2058 0136704 216.7674 142.4118 15.14689485203741 NO-84 1 40654U 15025D 18284.37428039 .00019050 00000-0 28599-3 0 04289 2 40654 054.9894 230.7332 0154585 046.3830 314.9938 15.42412384073766 NO-83 1 40655U 15025E 18284.27260572 .00041674 00000-0 36917-3 0 05039 2 40655 054.9715 159.8229 0098961 088.3528 272.8714 15.62025513074390 DEORBITSAIL 1 40719U 15032E 18284.74783261 .00000458 00000-0 72894-4 0 9994 2 40719 97.9300 176.2825 0017474 35.5631 324.6740 14.76532582175370 NUDT-PHONESAT 1 40900U 15049B 18284.72459701 .00002732 00000-0 12331-3 0 9997 2 40900 97.4416 291.6698 0013061 348.8067 98.9670 15.21778705169631 XW-2A 1 40903U 15049E 18284.71746009 .00002783 00000-0 69607-4 0 9994 2 40903 97.3732 320.6902 0013130 336.5411 162.2224 15.40928606171742 XW-2C 1 40906U 15049H 18284.69152280 .00000729 00000-0 42108-4 0 9991 2 40906 97.4620 286.0780 0014850 352.6515 96.6489 15.15344376169136 XW-2D 1 40907U 15049J 18284.83599745 .00000723 00000-0 41609-4 0 9998 2 40907 97.4600 285.9068 0014280 350.2984 131.6054 15.15506749169168 LILACSAT-2 1 40908U 15049K 18284.90932785 .00000341 00000-0 22565-4 0 9998 2 40908 97.4721 285.1823 0015894 352.1856 70.0604 15.13604009169023 XW-2E 1 40909U 15049L 18284.73225139 .00001470 00000-0 77095-4 0 9990 2 40909 97.4580 288.0420 0013558 348.5908 98.5434 15.17260547169287 XW-2F 1 40910U 15049M 18284.74367880 .00001272 00000-0 68054-4 0 9998 2 40910 97.4611 287.3434 0014616 345.7769 68.9738 15.16776263169128 XW-2B 1 40911U 15049N 18284.85747895 .00000846 00000-0 48182-4 0 9995 2 40911 97.4632 286.5062 0014091 350.6288 128.7099 15.15448119169061 DCBB 1 40912U 15049P 18284.83259814 .00001516 00000-0 75519-4 0 9992 2 40912 97.4519 290.5386 0014517 330.5515 153.7105 15.19025877169379 TW-1C 1 40926U 15051B 18284.67624552 .00013650 00000-0 23702-3 0 9995 2 40926 97.1720 326.5322 0009332 201.4522 256.6718 15.50908988171350 TW-1A 1 40928U 15051D 18284.78638139 .00003804 00000-0 99486-4 0 9998 2 40928 97.1758 316.4472 0009850 257.4303 191.6890 15.39308540170713 IO-86 1 40931U 15052B 18284.02765046 .00000836 00000-0 27363-4 0 9995 2 40931 6.0020 44.0729 0013144 211.0994 124.9777 14.76588414164143 LQSat 1 40958U 15057A 18284.72948238 .00000006 00000-0 86910-5 0 9995 2 40958 97.9312 355.2467 0017457 327.0978 32.9143 14.73051161162001 AO-85 1 40967U 15058D 18284.35080695 .00000221 00000-0 40406-4 0 04734 2 40967 064.7770 198.5789 0213715 278.6848 079.0108 14.75795511070791 ATHENOXAT-1 1 41168U 15077C 18284.12943851 .00002160 00000-0 80949-4 0 9999 2 41168 14.9895 251.5705 0011711 212.5864 237.2012 15.13039971155964 ChubuSat-2 1 41338U 16012B 18284.43334722 .00000417 00000-0 25845-4 0 9990 2 41338 031.0033 295.0541 0013833 144.6490 215.5064 15.00037076145308 ChubuSat-3 1 41339U 16012C 18284.45497774 .00000370 00000-0 22050-4 0 9993 2 41339 31.0113 293.3481 0013376 153.1179 327.3451 15.00219926145299 Horyu-4 1 41340U 16012D 18284.42679544 .00000630 00000-0 41296-4 0 9991 2 41340 031.0051 287.2358 0014071 166.1703 193.9320 15.01076231145379 OUFTI-1 1 41458U 16025C 18284.73469442 .00003771 00000-0 19611-3 0 9997 2 41458 98.1265 353.7671 0169982 116.8374 245.0345 15.05037793134979 e-st@r-II 1 41459U 16025D 18284.69692177 .00002087 00000-0 11103-3 0 9993 2 41459 98.1258 353.5210 0171272 117.5901 244.2856 15.04727443134940 AAUSAT4 1 41460U 16025E 18284.82519063 .00003399 00000-0 17581-3 0 9995 2 41460 98.1208 354.3547 0161901 112.2348 249.6131 15.06304336135045 LO-87 1 41557U 16033B 18284.77817858 .00001696 00000-0 66330-4 0 9993 2 41557 97.4327 8.6380 0015160 99.7794 260.5158 15.27144660131951 NuSat2 1 41558U 16033C 18284.78204360 .00001881 00000-0 70513-4 0 9997 2 41558 97.4349 8.9257 0014861 102.8951 257.3949 15.28438808131953 Lapan A3 1 41603U 16040E 18284.89095939 .00000310 00000-0 17721-4 0 9996 2 41603 97.3991 344.2114 0013129 186.1027 260.3316 15.19617270127802 Swayam 1 41607U 16040J 18284.65737735 .00002054 00000-0 91324-4 0 9999 2 41607 97.4008 345.9681 0013643 182.7831 177.3332 15.22567674127822 Pratham 1 41783U 16059A 18284.61645269 .00000060 00000-0 20871-4 0 9994 2 41783 098.1050 344.2179 0034937 090.2560 270.2645 14.62947788108984 AlSat 1N 1 41789U 16059G 18284.81734971 .00000082 00000-0 24621-4 0 9992 2 41789 98.1070 345.8802 0029623 81.0523 279.4022 14.64185255109082 ScatSat 1 41790U 16059H 18284.58769493 .00000017 00000-0 15481-4 0 9997 2 41790 098.2471 330.1874 0019560 094.1173 266.2258 14.50876088108069 TY-1 1 41844U 16066D 18284.85842139 .00002239 00000-0 96302-4 0 9993 2 41844 97.4066 290.3049 0015416 353.5457 89.8460 15.23586425106644 Pegasus-1 1 41846U 16066F 18284.50763720 .00000282 00000-0 54486-4 0 9998 2 41846 098.7454 315.3037 0366897 261.6445 094.2996 14.37417010100616 CAS-2T 1 41847U 16066G 18284.59677405 .00000059 00000-0 20517-4 0 9992 2 41847 098.7408 315.8825 0365030 258.5765 097.4219 14.37927539101058 TO-89 1 41932U 98067KU 18284.50304661 .00097692 00000-0 36843-3 0 9997 2 41932 051.6272 097.5060 0003825 277.5202 082.5368 15.86961056099168 AOBA-V3LOX3 1 41935U 98067KX 18284.81070130 .00314070 53980-4 52879-3 0 9993 2 41935 51.6279 85.1420 0006628 293.0996 66.9316 16.02198339 99454 EO-88 1 42017U 17008BX 18284.39742859 .00002285 00000-0 95071-4 0 9993 2 42017 097.4365 348.7123 0005640 346.5303 013.5783 15.24783383091772 HAVELSAT 1 42700U 98067LH 18284.79928072 .00064356 00000-0 35335-3 0 9996 2 42700 51.6277 115.3818 0002213 312.4466 47.6348 15.79141696 80395 SOMP2 1 42701U 98067LJ 18284.81853807 .00056624 00000-0 33713-3 0 9990 2 42701 51.6337 117.8079 0002167 294.8333 65.2442 15.77384204 80352 PHOENIX 1 42706U 98067LP 18284.79346586 .00037726 00000-0 25684-3 0 9993 2 42706 51.6320 119.9159 0001485 229.6076 130.4793 15.74499888 80247 X-CubeSat 1 42707U 98067LQ 18284.77582328 .00073083 00000-0 37346-3 0 9992 2 42707 51.6294 114.3795 0002329 248.1176 111.9578 15.80669334 80302 qbee 1 42708U 98067LR 18284.81159493 .00063347 00000-0 35382-3 0 9991 2 42708 51.6294 116.2283 0001456 232.1941 127.8928 15.78769447 80240 ZA-AeroSat 1 42713U 98067LU 18284.80085847 .00037263 00000-0 27066-3 0 9995 2 42713 51.6319 123.7081 0002326 229.0245 131.0553 15.72991868 79856 LINK 1 42714U 98067LV 18265.92001965 .06744984 12188-4 74906-3 0 9997 2 42714 051.6396 192.6696 0007557 179.7176 180.2695 16.36256502077350 UPSat 1 42716U 98067LX 18284.75763532 .00217164 29166-4 59087-3 0 9992 2 42716 51.6256 104.3881 0004497 277.2094 82.8402 15.93726467 80234 SpaceCube 1 42717U 98067LY 18284.78497732 .00058561 00000-0 32953-3 0 9991 2 42717 51.6252 116.7348 0001567 298.9276 61.1568 15.78635395 79315 Hoopoe 1 42718U 98067LZ 18284.76889740 .00104894 00000-0 42960-3 0 9994 2 42718 51.6259 110.5639 0002787 267.0650 93.0034 15.85238925 79392 NJUST-1 1 42722U 98067MB 18284.81679028 .00031138 00000-0 24111-3 0 9999 2 42722 51.6324 126.1068 0003664 302.9039 57.1607 15.71565930 78899 UNSW-EC0 1 42723U 98067MC 18284.72670358 .00147127 00000-0 51576-3 0 9998 2 42723 51.6359 109.6493 0004065 283.2648 76.7903 15.88273645 79084 LO-90 1 42725U 98067ME 18284.75729052 .00057164 00000-0 35942-3 0 9999 2 42725 51.6375 120.9887 0001947 293.5432 151.7172 15.76144460 78864 nSIGHT1 1 42726U 98067MF 18284.84616360 .00015289 00000-0 16571-3 0 9996 2 42726 51.6369 138.4419 0004046 309.8708 50.1930 15.63751329 78647 SNUSAT 1B 1 42727U 98067MG 18284.82003340 .00048627 00000-0 30810-3 0 9997 2 42727 51.6306 120.7614 0004899 267.2134 92.8305 15.76025445 78833 QBITO 1 42728U 98067MH 18284.77535287 .00065397 00000-0 35480-3 0 9993 2 42728 51.6327 116.8344 0002060 272.9320 87.1446 15.79400184 78722 Aalto-2 1 42729U 98067MJ 18284.78523378 .00070406 00000-0 36793-3 0 9998 2 42729 51.6277 116.0285 0001849 264.8537 95.2253 15.80195502 78742 SUSat 1 42730U 98067MK 18284.80823602 .00052231 00000-0 31732-3 0 9990 2 42730 51.6323 119.2295 0001677 278.8091 81.2719 15.76962404 78695 i-INSPIRE II 1 42731U 98067ML 18284.72118635 .00158909 20259-4 53299-3 0 9998 2 42731 51.6311 107.9803 0005561 259.5616 100.4764 15.89792852 78884 PolyITAN-2-SAU 1 42732U 98067MM 18284.80064957 .00069049 00000-0 35963-3 0 9997 2 42732 51.6298 115.3594 0005081 253.6265 106.4178 15.80262721 78794 ExAlta-1 1 42734U 98067MP 18284.72409947 .00196930 25802-4 55770-3 0 9991 2 42734 51.6216 106.3395 0005947 278.3193 81.7140 15.92984730 78855 Aoxiang-1 1 42735U 98067MQ 18284.76746733 .00037514 00000-0 28276-3 0 9995 2 42735 51.6339 125.5552 0003335 298.1761 148.6313 15.72111666 80025 BeEagleSat 1 42736U 98067MR 18284.79287650 .00045289 00000-0 30385-3 0 9999 2 42736 51.6318 122.1268 0003689 296.9356 63.1266 15.74748414 78763 CAS-4B 1 42759U 17034B 18284.86777049 .00000360 00000-0 35674-4 0 9991 2 42759 43.0181 162.6698 0008663 120.9075 296.2813 15.09390527 73081 CAS-4A 1 42761U 17034D 18284.84265872 .00000384 00000-0 37093-4 0 9991 2 42761 43.0193 162.5028 0009084 121.0748 291.0181 15.09466975 73071 UCLSat 1 42765U 17036A 18284.11889817 .00001541 00000-0 70172-4 0 9999 2 42765 097.3884 342.0361 0012621 037.1974 323.0134 15.22124320072936 NIUSat 1 42766U 17036B 18284.61702566 .00001234 00000-0 59226-4 0 9996 2 42766 097.3883 341.5430 0016423 022.6775 337.5183 15.20618575072223 LituanicaSAT 2 1 42768U 17036D 18284.73254181 .00002679 00000-0 12067-3 0 9991 2 42768 97.3902 342.1983 0016011 24.1737 336.0247 15.21818329 72286 Aalto 1 1 42775U 17036L 18284.42490068 .00001117 00000-0 53478-4 0 9999 2 42775 97.3874 341.6137 0014724 24.2513 335.9413 15.20934366 72168 URSA MAIOR 1 42776U 17036M 18284.60217260 .00001133 00000-0 54058-4 0 9994 2 42776 097.3881 341.8645 0014547 023.8558 336.3349 15.21030577072198 Max Valier Sat 1 42778U 17036P 18284.72534873 .00001275 00000-0 59584-4 0 9997 2 42778 97.3909 342.4364 0013199 28.8081 331.3881 15.21536260 72224 Pegasus 1 42784U 17036V 18284.43424843 .00001557 00000-0 71276-4 0 9992 2 42784 097.3886 342.2421 0013130 035.9597 324.2520 15.21923432072191 NUDATSat 1 42787U 17036Y 18284.63301392 .00001647 00000-0 73708-4 0 9992 2 42787 097.3920 342.7635 0013488 028.6276 331.5698 15.22610695072084 SUCHAI 1 1 42788U 17036Z 18284.69806986 .00001730 00000-0 78167-4 0 9995 2 42788 97.3887 342.6527 0012692 35.0743 325.1327 15.22236932 72315 SKCUBE 1 42789U 17036AA 18284.43812666 .00001740 00000-0 78733-4 0 9990 2 42789 097.3886 342.3802 0012564 035.9793 324.2286 15.22179355072195 VZLUSAT 1 1 42790U 17036AB 18284.42385182 .00002450 00000-0 10818-3 0 9997 2 42790 097.3891 342.5627 0012141 036.4609 323.7452 15.22629772072207 VENTA 1 1 42791U 17036AC 18284.61356396 .00001551 00000-0 70413-4 0 9993 2 42791 097.3884 342.5987 0012210 036.1974 324.0086 15.22214810072219 Robusta 1B 1 42792U 17036AD 18284.72404793 .00001692 00000-0 76281-4 0 9996 2 42792 97.3884 342.7481 0012138 36.2203 323.9853 15.22336688 72258 D-SAT 1 42794U 17036AF 18284.68914601 .00000483 00000-0 47851-4 0 9995 2 42794 97.5783 334.8634 0125448 254.3050 104.4300 14.90941882 71085 BIRD-J 1 42820U 98067MU 18284.80889977 .00043241 00000-0 30500-3 0 9990 2 42820 51.6320 125.2525 0002909 226.8759 133.1997 15.73608249 72182 BIRD-G 1 42821U 98067MV 18284.59459724 .00039227 00000-0 28878-3 0 9994 2 42821 051.6312 127.5799 0002886 226.3402 133.7357 15.72649342072135 BIRD-M 1 42822U 98067MW 18284.61452451 .00041599 00000-0 29968-3 0 9994 2 42822 051.6319 126.9657 0002859 227.1360 132.9398 15.73131434072147 BIRD-B 1 42823U 98067MX 18284.79031580 .00042369 00000-0 30217-3 0 9995 2 42823 51.6320 125.9138 0004232 255.0545 104.9985 15.73353754 72158 BIRD-N 1 42824U 98067MY 18284.77078715 .00039989 00000-0 28996-3 0 9990 2 42824 51.6331 126.5578 0004082 256.2100 103.8444 15.72992866 72137 TechnoSat 1 42829U 17042E 18284.81290846 .00000261 00000-0 31863-4 0 9994 2 42829 97.5838 182.6951 0014488 165.8119 194.3509 14.90870733 67708 TOMSK-TPU 120 1 42910U 98067MZ 18284.86438862 .00028682 00000-0 25629-3 0 9997 2 42910 51.6348 133.7003 0003784 278.2668 176.7820 15.68142171 65663 TANYUSHA 1 1 42911U 98067NA 18284.81262203 .00035279 00000-0 29214-3 0 9991 2 42911 51.6363 131.8988 0003405 274.9346 175.4902 15.69888576 65662 TANYUSHA 2 1 42912U 98067NB 18284.86968603 .00032527 00000-0 27982-3 0 9997 2 42912 51.6388 133.0112 0003047 283.0405 181.5414 15.69005400 65676 SFERA 2 1 42913U 98067NC 18284.56197151 .00159875 00000-0 58705-3 0 9990 2 42913 051.6302 116.7091 0003842 270.1600 089.8964 15.87299551065867 TNS 0-2 1 42914U 98067ND 18284.58846548 .00025078 00000-0 22670-3 0 9993 2 42914 051.6334 135.8705 0003624 278.1545 081.9041 15.67937719065582 QIKCOM-1 1 42983U 98067NF 18284.79370271 .00004021 00000-0 61320-4 0 9998 2 42983 51.6384 153.1023 0003520 269.8495 90.2093 15.57018726 54388 AO-91 1 43017U 17073E 18284.37514118 .00000653 00000-0 57395-4 0 9993 2 43017 97.7102 210.6855 0257813 253.3296 103.9472 14.78235201 48276 EcAMSat 1 43019U 98067NG 18284.79330524 .00006656 00000-0 92754-4 0 9997 2 43019 51.6395 151.6107 0004365 241.9437 118.1115 15.58254529136720 PICSAT 1 43132U 18004X 18284.41884039 .00001801 00000-0 79757-4 0 9995 2 43132 097.5221 347.3516 0011234 057.8278 302.4046 15.22925730041402 AO-92 1 43137U 18004AC 18284.40366082 .00001414 00000-0 63219-4 0 9998 2 43137 097.5215 347.3601 0010832 059.5375 300.6929 15.22946605041409 TianYi 2 1 43155U 18008A 18284.87372612 .00001469 00000-0 92081-4 0 9998 2 43155 97.5160 357.3230 0019461 103.3965 347.3077 15.10742816 40100 Zhou Enlai 1 43156U 18008B 18284.89733414 .00000844 00000-0 55383-4 0 9992 2 43156 97.5205 357.2853 0016690 99.7207 320.3288 15.10210492 40092 TianYi 6 1 43158U 18008D 18284.83023450 .00001279 00000-0 82640-4 0 9999 2 43158 97.5157 356.9664 0015272 96.6918 41.4709 15.09897138 40057 S-Net G 1 43186U 18014G 18284.70082413 .00000727 00000-0 68977-4 0 9991 2 43186 97.7166 191.6254 0012552 117.7963 242.4532 14.96514683 37747 S-Net H 1 43187U 18014H 18284.70067863 .00000727 00000-0 69017-4 0 9990 2 43187 97.7164 191.6197 0012559 117.7848 242.4648 14.96515732 37745 S-Net J 1 43188U 18014J 18284.70054401 .00000735 00000-0 69680-4 0 9990 2 43188 97.7167 191.6278 0012551 117.8380 242.4114 14.96516353 37741 S-Net K 1 43189U 18014K 18284.70073501 .00000729 00000-0 69148-4 0 9995 2 43189 97.7164 191.6184 0012549 117.7572 242.4924 14.96515326 36291 FMN 1 1 43192U 18015A 18284.59203749 .00002747 00000-0 11844-3 0 9997 2 43192 097.3707 051.2191 0018458 093.6346 266.7020 15.23245317038232 Shaonian Xing 1 43199U 18015H 18284.57679716 .00002075 00000-0 88175-4 0 9999 2 43199 097.3490 050.8067 0019138 105.0635 255.2726 15.24012606038263 1KUNS-PF 1 43466U 98067NP 18284.80913398 .00016244 00000-0 21710-3 0 9998 2 43466 51.6383 154.7031 0001127 146.5790 213.5274 15.58201056 23861 UBAKUSAT 1 43467U 98067NQ 18284.83683416 .00011926 00000-0 16568-3 0 9994 2 43467 51.6384 154.8915 0002777 188.4043 171.6903 15.57462882 23872 Irazu 1 43468U 98067NR 18284.07595526 .00020556 00000-0 26711-3 0 9995 2 43468 51.6385 158.0581 0001236 140.7382 219.3700 15.58769630123749 EnduroSat One 1 43551U 98067NZ 18284.57621884 .00014368 00000-0 20589-3 0 9991 2 43551 051.6379 157.6394 0005466 285.8651 074.1738 15.56420989014040 EQUISat 1 43552U 98067PA 18284.58061206 .00012761 00000-0 18500-3 0 9994 2 43552 051.6382 157.6701 0005743 287.1039 072.9323 15.56221690014000 UiTMSat 1 1 43589U 98067PD 18284.74523078 .00012918 00000-0 19011-3 0 9994 2 43589 51.6379 157.2664 0005096 297.7910 62.2564 15.55800055 9769 Maya 1 1 43590U 98067PE 18284.74410270 .00013039 00000-0 19164-3 0 9999 2 43590 51.6379 157.2591 0005172 298.7423 61.3049 15.55827567 9692 Bhutan 1 1 43591U 98067PF 18284.03604885 .00012701 00000-0 18672-3 0 9997 2 43591 051.6382 160.7806 0005245 297.5011 062.5446 15.55847815009586 SiriusSat 1 1 43595U 98067PG 18284.63224699 .00012233 00000-0 18301-3 0 9997 2 43595 051.6382 158.0076 0003147 237.1150 122.9539 15.55414027008850 SiriusSat 2 1 43596U 98067PH 18284.63730725 .00012350 00000-0 18565-3 0 9992 2 43596 051.6389 158.0471 0003745 243.3255 116.7353 15.55269455008854 Tanusha-3 1 43597U 98067PJ 18284.56984504 .00015098 00000-0 22376-3 0 9998 2 43597 051.6371 158.3362 0003038 255.0586 105.0069 15.55462359008842 SurfSat 1 43614U 18070B 18284.44507585 .00003588 00000-0 10129-3 0 9995 2 43614 93.0251 260.2342 0016171 179.8347 180.2914 15.36301931 3970 CP-7 DAVE 1 43615U 18070C 18284.44490564 .00003522 00000-0 99433-4 0 9998 2 43615 093.0247 260.2350 0016030 179.3976 180.7300 15.36309979003976 ELFIN-B 1 43616U 18070D 18284.63930178 -.00000006 00000-0 00000 0 0 9992 2 43616 93.0241 260.3007 0016096 185.8357 174.2864 15.36364991 4001 ELFIN-A 1 43617U 18070E 18284.37841415 -.00000006 00000-0 00000 0 0 9999 2 43617 93.0274 260.2175 0017772 180.4348 179.7598 15.36397307 3961 STARS-Me Mother 1 43640U 98067PQ 18284.02366326 .00008481 00000-0 13306-3 0 9995 2 43640 51.6386 161.4464 0005357 233.2726 126.7773 15.54571567 682 /EX